Other Public Products
Issued by NWS Charleston, SC

Home | Current Version | Previous Version | Text Only | Print | Product List | Glossary On
Versions: 1 2 3 4 5 6 7 8 9 10 11 12 13 14 15 16 17 18 19 20 21 22 23 24 25 26 27 28 29 30 31 32 33 34 35 36 37 38 39 40 41 42 43 44 45 46 47 48 49 50
000
FPUS82 KCHS 201912
OPUCHS

TEST...KCHS/KSAV Gateway Observations...TEST
National Weather Service Charleston SC
200 PM EST MON NOV 20 2017

NOTE: "fair" indicates few or no clouds below 12,000 feet with no
significant weather and/or obstructions to visibility.

SCZ050-WAZ558-NCZ071-TXZ119-213-PAZ071-DCZ001-FLZ074-172-MI076-
NYZ176-178-MAZ016-IL014-TNZ027-NJZ106-GAZ044-MD014-202000-

...Gateway Observations for Charleston International...

CITY           SKY/WX    TMP DP  RH WIND       PRES   REMARKS
Chas Airport   MOSUNNY   61  30  31 N6        30.23F
Seattle        LGT RAIN  48  47  96 W6        29.71R FOG
Charlotte      MOSUNNY   57  24  28 S7        30.23F
Dallas DFW     MOSUNNY   65  30  27 S20G26    30.05F
Dallas Love    MOSUNNY   64  30  27 S10       30.07F
Philladelphia  MOSUNNY   47  22  37 W22       30.12S
Wash National  MOSUNNY   51  21  30 W17       30.18F
Baltimore      MOSUNNY   49  23  36 W13       30.15F
Miami          PTSUNNY   79  67  66 NE14G22   30.02F
Detroit        PTSUNNY   47  28  47 SW24G31   29.93F
Newark         MOSUNNY   48  22  35 W17G26    30.03S
Laguardia      MOSUNNY   47  21  35 W20G29    30.02R
J F K          MOSUNNY   47  22  37 W20G30    30.04R
Boston Logan   MOSUNNY   41  17  38 W20G31    29.90R
Ft. Lauderdale PTSUNNY   77  67  71 NE14      30.01F
Chicago O`Hare MOSUNNY   50  31  48 SW21G31   29.80F
Chicago Midway PTSUNNY   52  32  46 SW18G26   29.82F
Houston Bush   PTSUNNY   64  41  42 S9        30.16F
Houston Hobby  PTSUNNY   64  46  52 E9        30.16F
Nashville      CLOUDY    52  23  32 VRB5      30.18F
Atlanta        CLOUDY    58  30  34 SE6       30.19F

$$

GAZ044-118-TXZ119-213-NCZ071-DCZ001-MDZ014-506-PAZ021-071-NJZ106-
NYZ176-178-MAZ106-OHZ011-021-055-MIZ076-KYZ091-ILZ014-INZ047-
MNZ060-ONZ431-202000-

...Gateway Observations for Savannah International...

CITY           SKY/WX    TMP DP  RH WIND       PRES   REMARKS
Savannah Arpt  PTSUNNY   63  32  31 E9        30.22F
Atlanta        CLOUDY    58  30  34 SE6       30.19F
Charlotte      MOSUNNY   57  24  28 S7        30.23F
Dallas DFW     MOSUNNY   65  30  27 S20G26    30.05F
Houston Bush   PTSUNNY   64  41  42 S9        30.16F
Wash National  MOSUNNY   51  21  30 W17       30.18F
Wash Dulles    MOSUNNY   50  22  33 W8        30.17F
Baltimore      MOSUNNY   49  23  36 W13       30.15F
Philadelphia   MOSUNNY   47  22  37 W22       30.12S
Newark         MOSUNNY   48  22  35 W17G26    30.03S
Laguardia      MOSUNNY   47  21  35 W20G29    30.02R
J F K          MOSUNNY   47  22  37 W20G30    30.04R
Boston         MOSUNNY   41  17  38 W20G31    29.90R
Pittsburg      MOSUNNY   40  22  48 SW12G21   30.08F WCI  33
Akron          MOSUNNY   42  25  50 S16       30.05F
Cleveland      MOSUNNY   46  25  43 SW18G26   30.03F
Cincinnati     PTSUNNY   46  25  43 S17G25    30.11F
Columbus       SUNNY     43  26  50 S14G21    30.11F
Detroit        PTSUNNY   47  28  47 SW24G31   29.93F
Chicago O`Hare MOSUNNY   50  31  48 SW21G31   29.80F
Minneapolis    CLOUDY    45  30  55 VRB6      29.49F
Indianapolis   MOSUNNY   49  26  41 S15       30.03F
Toronto Canada PTSUNNY   43  30  61 W13G22    29.89F

$$




USA.gov is the U.S. government's official web portal to all federal, state and local government web resources and services.